Wind_Speed
15 15 14 14 15 13 11 12 13 13 13 13 13 12 12 11 11 11 11 11 10 10 9 9 8 8 8 9 10 10 11 11 11 11 11 11 11 11 10 10 10 10 10 9 9 8 8 8 8
14 13 13 14 14 10 10 11 12 12 12 12 12 12 11 11 10 10 10 10 9 9 8 8 8 7 8 8 9 10 10 11 11 11 11 10 10 10 10 9 9 9 9 8 8 8 8 8 8
13 12 12 13 11 10 10 10 11 11 11 11 12 12 11 10 9 8 8 9 8 7 7 7 6 7 7 8 9 9 10 10 10 10 10 10 9 9 9 8 8 8 8 8 7 7 7 7 7
11 11 12 12 9 9 9 10 10 11 11 11 11 11 11 10 9 8 7 7 7 6 6 6 5 6 7 7 8 9 9 10 10 10 10 9 9 9 8 8 8 8 7 7 7 6 6 6 6
9 11 11 9 9 9 9 9 9 10 10 10 10 11 11 10 9 8 7 7 6 5 4 4 4 5 6 7 7 8 9 9 9 9 9 9 9 8 8 8 8 8 7 7 6 6 6 5 5
9 10 9 6 7 8 9 9 9 9 10 9 9 10 11 10 9 8 7 6 6 5 4 3 4 4 5 6 7 7 8 8 8 8 8 8 8 8 8 8 8 7 7 6 6 5 5 5 4
7 8 7 6 6 7 8 9 9 9 9 9 8 9 10 10 9 8 7 6 5 5 4 3 2 3 4 5 6 6 7 7 7 8 8 7 8 8 8 7 7 7 6 6 6 5 5 4 4
5 6 5 5 5 6 7 8 8 9 9 9 8 8 9 9 8 7 7 6 5 4 3 2 2 3 4 5 6 6 6 7 7 7 7 7 7 7 7 7 6 6 6 6 5 5 5 4 4
4 5 3 3 4 5 6 7 8 8 8 8 9 9 8 8 8 7 6 5 4 3 2 2 2 3 4 4 5 5 6 7 7 6 7 7 6 6 6 6 5 6 5 5 5 5 5 5 4
4 4 3 3 4 5 5 6 6 7 8 8 8 8 7 7 7 6 5 5 4 3 2 2 2 2 3 3 4 4 5 6 6 6 6 6 6 6 5 5 5 5 5 5 4 4 5 4 4
3 3 3 3 3 4 4 5 5 6 7 7 7 7 7 7 7 6 6 5 3 2 1 1 1 2 2 2 3 4 5 5 5 5 5 5 4 4 4 4 4 4 4 4 4 4 4 4 4
2 1 1 1 2 3 3 4 4 5 6 6 7 7 6 6 6 6 6 4 3 2 2 1 1 1 1 2 4 4 4 4 4 4 4 4 3 3 3 3 3 3 3 3 4 4 3 3 3
3 2 1 1 0 0 1 2 2 3 4 5 6 6 6 6 6 6 6 5 4 3 2 2 2 2 2 3 4 4 4 4 4 4 3 3 2 2 2 2 2 2 2 2 3 3 3 2 3
5 4 3 3 2 2 1 1 1 2 4 5 5 5 5 5 5 5 5 5 5 4 3 3 3 3 3 4 5 5 5 5 4 4 4 3 3 2 2 2 2 2 2 1 2 2 2 2 2
7 7 6 5 4 3 2 2 2 3 3 4 5 5 4 4 5 5 6 6 5 5 4 4 4 5 5 5 6 6 6 6 6 5 5 4 4 3 3 3 2 2 2 1 1 1 1 1 1
9 8 8 7 6 4 3 3 4 4 4 4 5 5 5 5 6 6 7 7 6 6 6 5 5 5 7 7 7 7 7 7 7 7 6 6 5 5 4 4 3 3 3 2 2 1 1 1 0
11 10 10 9 7 6 5 5 5 4 4 5 5 5 5 6 7 7 8 8 8 7 6 6 5 6 7 8 8 8 8 8 8 7 7 7 6 6 5 5 5 5 5 4 3 2 1 1 1
13 12 12 11 9 7 6 6 5 5 5 6 6 6 6 7 8 8 9 9 9 8 7 7 7 7 6 7 8 8 9 8 9 8 8 8 7 6 6 6 6 6 6 6 5 4 4 3 3
15 14 14 13 11 10 8 7 7 6 6 6 6 7 7 8 8 9 10 10 10 9 9 8 8 7 8 8 8 8 9 10 10 9 8 8 8 8 7 6 6 7 7 7 7 6 6 5 5
16 15 15 14 12 12 10 9 8 7 7 7 8 8 8 8 9 10 11 11 10 10 9 9 9 9 9 9 9 9 9 10 10 9 9 9 9 9 9 8 8 8 8 8 8 8 7 7 7
17 17 16 15 14 13 11 10 10 8 8 8 9 9 9 9 10 11 11 11 11 11 10 9 9 10 10 10 10 10 9 10 10 10 10 10 10 10 10 10 9 10 10 10 10 10 10 9 9
19 18 17 16 15 14 12 11 11 10 9 9 9 9 9 9 10 11 11 11 12 11 11 11 10 10 10 11 11 10 10 10 11 11 11 11 11 11 12 11 11 12 11 12 12 12 12 12 12
21 19 18 17 16 16 14 12 12 11 10 10 9 9 9 9 10 11 12 12 11 11 11 11 11 10 10 10 11 11 12 13 12 12 13 13 13 12 13 13 13 13 14 14 14 13 14 13 14
21 20 19 18 17 17 15 14 13 12 11 11 10 10 9 10 10 11 12 12 12 12 12 11 11 10 10 10 10 11 13 14 14 14 13 14 14 14 14 15 15 15 15 15 15 16 16 16 16
22 20 19 19 19 18 17 15 14 13 12 11 11 11 10 10 11 12 13 13 12 12 12 12 11 11 11 11 11 11 12 13 13 14 14 15 15 15 15 15 15 15 15 16 17 17 17 17 17
23 22 21 19 17 18 18 16 15 14 13 12 12 12 11 11 12 12 13 12 12 12 12 12 11 11 11 11 12 12 12 13 13 14 14 14 15 15 15 15 15 15 16 16 17 18 18 18 19
26 24 23 21 20 18 18 16 15 14 13 12 12 12 12 13 13 13 13 12 12 12 12 11 11 11 11 12 12 12 12 13 13 14 14 15 14 14 14 14 15 16 16 17 18 18 18 18 18
28 26 25 23 21 18 17 16 14 14 13 13 13 13 13 14 14 13 13 12 11 11 11 10 10 10 11 11 11 12 12 13 13 14 15 16 15 15 15 15 15 16 16 17 18 18 18 18 18
28 27 26 24 22 18 15 15 15 14 13 13 13 13 14 14 13 13 12 11 11 10 10 9 10 10 10 11 11 11 12 12 12 13 14 14 15 15 16 15 16 16 16 17 17 18 18 19 19
28 27 25 24 22 19 16 15 16 15 14 14 14 13 13 13 13 13 12 11 10 10 10 9 10 10 11 11 11 11 12 12 13 13 14 14 14 14 15 15 16 16 17 17 18 18 19 19 20
Wind_Direction
84 86 81 79 76 76 80 81 80 79 80 82 82 82 80 79 79 80 82 83 85 87 89 93 101 108 112 112 110 110 108 105 102 98 96 94 92 91 90 89 89 88 87 89 90 89 87 87 86
82 83 79 75 78 77 77 81 81 81 79 78 77 78 78 78 78 79 81 84 87 90 94 97 103 108 113 114 114 112 110 108 104 101 98 97 96 95 93 92 92 90 90 92 92 90 88 88 87
81 81 76 76 83 81 76 78 79 80 77 76 76 75 72 72 72 73 77 83 87 92 97 102 107 113 115 118 118 114 112 109 107 105 102 100 99 97 96 95 95 92 92 95 94 91 90 88 85
81 79 75 77 78 73 72 76 77 78 77 75 74 72 70 69 67 69 74 78 82 90 98 103 110 117 119 120 121 118 115 114 112 108 105 103 103 101 100 98 96 94 93 94 94 93 90 89 86
83 79 76 77 72 68 67 70 75 77 76 74 72 70 66 64 63 63 67 70 76 85 95 104 114 122 124 126 127 123 119 118 116 112 107 106 107 104 103 100 98 97 95 93 92 94 92 93 90
85 81 83 81 69 63 62 64 71 75 74 72 68 65 63 61 59 56 56 60 72 83 95 107 119 128 129 130 131 128 123 121 119 117 111 111 110 108 107 104 100 99 97 93 92 92 92 95 90
88 90 93 87 69 62 59 60 68 71 69 64 63 62 62 60 55 53 53 59 71 82 93 102 125 147 140 136 138 135 129 126 125 120 116 114 114 112 110 107 103 101 98 95 93 92 94 93 88
90 84 79 84 79 69 62 57 58 59 58 56 56 56 57 58 55 55 55 60 67 76 83 96 128 148 148 149 144 141 137 134 130 124 120 120 119 117 114 114 109 104 100 96 93 93 93 92 90
90 88 88 84 90 81 68 56 53 50 49 47 48 49 51 55 56 55 53 55 53 59 72 100 142 145 146 150 146 147 140 138 136 130 126 123 123 122 119 119 114 105 98 93 91 93 93 91 91
103 111 110 87 91 81 70 58 51 46 42 38 37 41 45 49 53 51 45 41 40 43 56 87 122 151 142 148 156 156 145 141 141 135 128 125 124 122 122 119 115 102 96 92 92 92 93 90 89
126 124 93 86 86 78 68 59 47 44 39 30 29 33 37 41 45 41 32 28 26 16 14 47 116 141 144 156 169 165 155 151 145 141 133 125 123 122 123 118 112 102 94 92 95 92 90 86 87
174 139 101 103 79 76 69 58 44 35 31 27 24 27 32 31 33 27 19 10 1 358 343 313 230 237 233 192 183 183 176 168 159 154 150 144 136 130 131 129 117 105 98 96 95 90 88 88 89
217 224 218 232 247 86 64 54 36 20 20 25 19 18 22 20 19 14 7 356 340 325 311 302 267 260 237 212 199 201 201 192 185 181 176 172 164 161 162 151 143 129 112 101 101 96 91 88 88
227 235 244 257 261 246 283 353 354 351 4 12 11 10 13 7 7 3 355 349 335 318 296 288 266 263 249 231 221 215 213 209 206 205 206 207 202 200 202 193 178 167 145 122 105 94 81 74 81
234 239 247 253 260 254 266 290 295 315 334 351 359 357 350 345 345 342 340 335 328 321 306 292 268 254 248 238 232 229 226 225 224 222 224 225 225 222 218 216 217 208 191 160 129 92 69 83 99
237 240 246 250 255 254 252 266 278 295 309 324 334 333 328 329 323 325 330 327 321 311 302 297 273 260 248 239 232 231 231 235 235 233 234 235 232 231 231 227 230 224 218 212 199 178 55 59 112
239 240 244 250 252 252 245 250 270 284 292 300 314 320 319 321 319 320 320 321 317 312 309 295 276 270 257 246 238 237 238 241 240 239 240 241 238 237 240 237 237 239 235 234 233 231 244 273 276
237 239 245 249 250 250 250 253 269 278 282 286 296 304 302 310 312 312 311 312 313 312 309 298 285 274 263 252 245 241 240 240 244 243 244 250 241 238 243 247 248 244 237 240 245 247 253 264 270
234 236 242 248 249 250 252 258 268 280 278 280 287 295 294 295 303 305 304 303 303 303 301 295 288 279 269 264 250 246 245 242 249 248 249 248 241 244 248 252 256 250 244 246 247 249 256 264 263
235 236 242 248 248 249 253 259 267 276 276 277 282 286 291 292 296 299 298 297 296 296 293 289 284 278 271 267 264 256 254 252 253 250 249 251 250 250 253 255 254 250 248 250 248 249 257 262 265
235 236 241 245 248 250 253 260 267 273 277 277 282 282 285 290 294 297 298 295 296 290 290 285 282 281 277 274 268 261 258 251 251 249 252 256 255 253 255 257 258 256 251 248 248 252 257 261 265
236 237 241 245 246 252 252 257 269 270 274 279 283 279 282 291 296 299 302 296 292 289 286 283 282 278 274 271 268 263 260 256 254 254 256 260 260 259 263 262 260 258 257 255 254 257 259 262 266
236 238 242 245 247 251 254 254 262 266 267 274 278 277 280 288 295 299 298 295 289 286 285 285 282 279 274 270 268 265 262 260 259 258 261 262 263 263 265 265 262 257 258 260 260 262 263 264 267
235 238 242 245 248 251 254 257 259 261 264 268 272 276 281 289 292 294 297 292 288 283 284 284 279 274 270 269 270 269 267 264 260 258 262 265 266 265 264 263 262 261 260 261 263 266 266 266 268
234 236 241 245 248 252 256 255 255 257 261 265 268 275 280 288 291 295 298 294 288 280 276 276 274 269 266 264 265 267 271 270 263 260 263 266 267 267 267 263 261 262 262 263 265 266 266 267 268
234 235 238 242 249 255 259 256 256 257 260 263 267 272 278 282 291 297 297 293 288 281 275 274 272 270 269 269 267 269 276 277 270 263 263 268 268 270 271 264 261 263 265 266 267 267 268 269 268
232 232 235 240 244 248 257 257 255 256 258 260 266 271 275 277 286 293 294 289 284 283 280 273 271 268 268 269 269 271 277 277 270 264 266 269 269 269 267 265 267 268 269 269 269 269 269 269 269
232 233 235 237 242 245 255 256 255 254 255 257 262 268 274 276 283 287 290 289 281 281 284 275 271 269 268 272 275 275 275 272 268 267 269 271 270 267 266 266 268 270 272 271 270 268 266 267 271
233 234 235 236 238 240 250 255 250 250 254 258 261 264 269 276 280 281 286 290 282 281 285 281 275 274 273 273 275 276 276 272 271 270 272 273 271 268 269 270 268 270 272 272 272 269 268 269 270
232 233 235 236 239 238 238 250 250 249 252 257 259 261 267 272 275 280 282 286 284 285 287 281 275 273 274 275 278 279 280 279 276 275 276 275 272 271 271 271 273 274 274 273 272 271 269 269 271
Height
5910 5910 5911 5911 5912 5913 5911 5911 5910 5908 5908 5907 5906 5905 5905 5905 5906 5908 5905 5903 5904 5904 5903 5904 5904 5904 5904 5903 5903 5903 5903 5903 5903 5902 5902 5902 5902 5903 5903 5903 5903 5903 5903 5903 5903 5903 5903 5903 5903
5912 5912 5913 5914 5915 5915 5914 5912 5911 5910 5909 5908 5907 5907 5906 5906 5906 5906 5905 5905 5905 5905 5905 5905 5905 5905 5905 5905 5905 5904 5904 5904 5904 5904 5904 5904 5904 5904 5904 5904 5904 5904 5904 5904 5904 5904 5904 5904 5904
5914 5914 5915 5916 5917 5917 5916 5914 5912 5911 5910 5909 5909 5908 5908 5907 5907 5906 5906 5906 5906 5906 5906 5906 5906 5906 5906 5906 5906 5905 5905 5905 5905 5905 5905 5905 5905 5905 5905 5905 5905 5905 5905 5905 5905 5905 5905 5905 5905
5915 5916 5917 5919 5918 5918 5917 5915 5914 5912 5912 5911 5910 5910 5909 5908 5908 5908 5907 5907 5907 5907 5907 5907 5907 5907 5907 5907 5907 5906 5906 5906 5906 5906 5906 5906 5906 5906 5906 5906 5906 5906 5906 5906 5906 5906 5906 5906 5906
5916 5918 5920 5920 5919 5919 5918 5916 5915 5914 5913 5912 5912 5911 5910 5909 5909 5909 5908 5908 5907 5907 5908 5908 5908 5908 5908 5907 5907 5907 5907 5907 5907 5907 5907 5907 5907 5907 5907 5907 5907 5907 5907 5907 5907 5907 5907 5907 5907
5918 5920 5922 5921 5920 5919 5918 5917 5916 5915 5914 5914 5913 5912 5911 5910 5910 5909 5909 5908 5908 5908 5908 5908 5908 5908 5908 5908 5908 5908 5908 5908 5908 5908 5908 5908 5908 5908 5908 5908 5908 5908 5908 5908 5908 5908 5907 5907 5907
5920 5921 5922 5922 5921 5920 5920 5918 5917 5917 5916 5915 5914 5913 5912 5911 5910 5910 5909 5909 5908 5908 5908 5908 5908 5908 5908 5908 5908 5908 5908 5908 5909 5909 5909 5909 5909 5909 5909 5909 5909 5909 5909 5909 5909 5908 5908 5908 5908
5919 5922 5922 5922 5922 5922 5921 5919 5919 5918 5917 5916 5915 5914 5913 5912 5911 5911 5910 5910 5909 5909 5909 5908 5908 5908 5908 5908 5909 5909 5909 5909 5909 5909 5910 5910 5910 5910 5910 5910 5910 5910 5910 5910 5910 5909 5909 5909 5909
5920 5923 5923 5923 5922 5922 5921 5920 5920 5919 5918 5917 5916 5915 5914 5913 5912 5912 5911 5910 5910 5910 5909 5908 5908 5908 5908 5909 5909 5909 5909 5909 5910 5910 5910 5910 5911 5910 5911 5911 5911 5911 5911 5911 5910 5910 5910 5910 5909
5920 5923 5922 5922 5922 5922 5922 5921 5920 5919 5918 5918 5917 5916 5915 5914 5913 5913 5912 5911 5911 5910 5909 5909 5909 5909 5909 5909 5909 5909 5910 5910 5910 5911 5911 5911 5911 5911 5911 5911 5911 5911 5911 5911 5911 5910 5910 5910 5910
5920 5921 5921 5921 5922 5922 5921 5921 5920 5920 5919 5919 5918 5916 5915 5915 5914 5913 5913 5912 5911 5911 5910 5909 5909 5909 5909 5909 5909 5910 5910 5910 5911 5911 5911 5912 5912 5912 5912 5912 5912 5912 5912 5912 5911 5911 5911 5911 5911
5920 5920 5921 5921 5921 5921 5921 5921 5921 5920 5920 5919 5918 5917 5916 5915 5915 5914 5913 5912 5912 5911 5910 5910 5910 5909 5909 5909 5910 5910 5911 5911 5911 5911 5912 5912 5912 5912 5912 5913 5913 5912 5912 5912 5912 5912 5911 5911 5911
5919 5920 5920 5921 5921 5921 5921 5921 5921 5920 5920 5919 5918 5917 5916 5916 5915 5914 5913 5912 5912 5911 5911 5910 5910 5909 5909 5909 5910 5910 5911 5911 5911 5912 5912 5912 5912 5913 5913 5913 5913 5913 5913 5913 5912 5912 5912 5912 5911
5918 5918 5919 5920 5920 5920 5921 5921 5921 5920 5920 5919 5918 5918 5917 5916 5915 5914 5913 5912 5911 5911 5910 5910 5910 5909 5909 5909 5910 5910 5910 5911 5911 5911 5912 5912 5912 5912 5913 5913 5913 5913 5913 5913 5913 5912 5912 5912 5912
5916 5918 5918 5919 5920 5920 5921 5921 5920 5919 5919 5919 5918 5917 5916 5915 5915 5914 5913 5911 5911 5910 5910 5909 5909 5909 5909 5909 5909 5909 5910 5910 5911 5911 5911 5911 5912 5912 5912 5912 5913 5913 5913 5913 5913 5913 5912 5912 5912
5915 5916 5918 5918 5919 5919 5921 5921 5920 5919 5918 5918 5917 5917 5916 5915 5914 5913 5912 5911 5910 5909 5909 5908 5908 5908 5907 5908 5908 5909 5909 5909 5910 5910 5910 5911 5911 5911 5911 5912 5912 5912 5912 5913 5913 5912 5912 5912 5912
5913 5915 5916 5917 5917 5918 5919 5920 5919 5918 5917 5917 5916 5916 5915 5914 5913 5912 5911 5910 5909 5908 5908 5907 5907 5906 5906 5906 5907 5908 5908 5908 5909 5909 5909 5910 5910 5910 5910 5911 5911 5911 5912 5912 5912 5912 5912 5912 5912
5912 5913 5914 5915 5915 5916 5917 5918 5917 5917 5916 5916 5915 5915 5914 5914 5913 5912 5910 5909 5908 5908 5907 5906 5905 5905 5905 5905 5905 5906 5907 5907 5907 5908 5908 5909 5909 5909 5909 5910 5910 5910 5911 5911 5911 5911 5911 5911 5911
5908 5910 5911 5912 5913 5914 5915 5916 5916 5916 5915 5915 5914 5914 5913 5913 5912 5911 5909 5908 5907 5907 5906 5905 5904 5904 5903 5903 5903 5904 5905 5905 5906 5906 5907 5907 5908 5908 5908 5909 5909 5909 5909 5910 5910 5910 5910 5910 5910
5905 5907 5908 5909 5910 5912 5913 5914 5914 5914 5913 5913 5913 5913 5912 5911 5910 5909 5908 5907 5906 5905 5905 5904 5903 5903 5902 5902 5902 5902 5903 5903 5904 5905 5905 5906 5906 5907 5907 5907 5907 5907 5908 5908 5909 5909 5909 5909 5909
5901 5903 5905 5906 5907 5909 5911 5912 5912 5912 5912 5912 5911 5911 5910 5909 5909 5907 5906 5905 5904 5903 5903 5902 5901 5901 5900 5900 5900 5900 5901 5901 5902 5903 5903 5904 5904 5905 5905 5905 5905 5906 5906 5906 5906 5907 5907 5907 5907
5897 5899 5901 5903 5905 5906 5909 5911 5910 5910 5910 5910 5909 5909 5908 5907 5906 5905 5904 5903 5902 5901 5900 5900 5899 5898 5898 5898 5898 5898 5899 5899 5900 5900 5901 5901 5902 5902 5902 5902 5903 5903 5903 5904 5904 5904 5904 5905 5905
5893 5896 5898 5900 5902 5904 5905 5908 5910 5907 5907 5907 5907 5906 5906 5905 5904 5903 5902 5901 5900 5899 5898 5897 5896 5896 5896 5896 5896 5896 5897 5897 5897 5897 5898 5898 5899 5899 5899 5900 5900 5900 5900 5901 5901 5901 5902 5902 5902
5889 5892 5894 5896 5899 5901 5902 5904 5906 5905 5905 5905 5904 5904 5904 5903 5902 5901 5900 5898 5898 5897 5896 5895 5894 5894 5894 5894 5894 5894 5894 5894 5894 5895 5895 5895 5896 5896 5896 5896 5897 5897 5897 5898 5898 5898 5898 5898 5898
5885 5889 5892 5894 5895 5898 5898 5900 5902 5901 5902 5902 5902 5902 5901 5900 5899 5898 5897 5896 5895 5894 5893 5893 5892 5891 5891 5891 5891 5891 5891 5891 5891 5892 5892 5892 5892 5892 5892 5892 5893 5893 5893 5894 5894 5894 5894 5895 5895
5881 5885 5889 5892 5894 5895 5894 5896 5898 5898 5898 5898 5899 5899 5898 5898 5897 5896 5895 5893 5892 5891 5890 5890 5889 5889 5889 5889 5889 5889 5888 5888 5888 5889 5889 5889 5889 5888 5887 5888 5889 5889 5890 5890 5890 5890 5890 5890 5890
5876 5880 5884 5887 5889 5891 5891 5892 5894 5894 5895 5895 5895 5896 5895 5895 5894 5893 5892 5890 5889 5889 5888 5887 5886 5886 5886 5886 5886 5886 5886 5886 5885 5886 5886 5886 5885 5885 5885 5885 5886 5886 5886 5886 5886 5886 5886 5886 5886
5871 5875 5878 5882 5884 5887 5888 5889 5891 5891 5891 5892 5892 5892 5892 5892 5891 5890 5889 5888 5886 5886 5885 5884 5884 5884 5884 5884 5884 5883 5883 5883 5882 5883 5883 5882 5882 5882 5882 5882 5882 5882 5882 5882 5882 5881 5882 5882 5881
5867 5870 5873 5877 5880 5884 5886 5889 5886 5887 5888 5889 5889 5889 5889 5889 5888 5888 5887 5885 5884 5884 5883 5882 5882 5882 5881 5882 5881 5881 5880 5880 5880 5880 5879 5879 5878 5879 5879 5879 5879 5879 5878 5878 5877 5877 5877 5877 5877
5861 5865 5869 5873 5875 5878 5882 5886 5882 5883 5884 5885 5886 5886 5886 5886 5886 5885 5884 5883 5882 5881 5881 5880 5880 5879 5880 5880 5879 5878 5878 5877 5877 5876 5876 5875 5875 5875 5875 5875 5875 5875 5874 5874 5873 5873 5873 5872 5872